Location: McFarlands Corners
(41.4117°N, 81.3382°W)
Time: 01:48:03
(UTC+00:00)

Explorer 7 - Visible Passes

Search period start: 07 February 2026 00:00
Search period end: 17 February 2026 00:00
Orbit: 431 x 547 km, 50.2° (Epoch: 6 February)

Date Brightness Start Highest point End Pass type
(mag) Time Alt. Az. Time Alt. Az. Time Alt. Az.
7 Feb 6.5 00:37:17 10° SW 00:40:51 71° SSE 00:40:51 71° SSE visible
8 Feb 6.5 00:12:01 10° SW 00:15:43 70° SE 00:17:02 38° ENE visible
8 Feb 9.9 01:51:02 10° W 01:51:26 12° WNW 01:51:26 12° WNW visible
8 Feb 6.6 23:46:43 10° SW 23:50:23 67° SE 23:53:05 18° ENE visible
9 Feb 9.0 01:25:41 10° W 01:27:29 22° WNW 01:27:29 22° WNW visible
9 Feb 6.7 23:21:23 10° SW 23:25:01 64° SE 23:28:48 10° ENE visible
10 Feb 8.1 01:00:18 10° W 01:03:25 31° NNW 01:03:25 31° NNW visible
11 Feb 7.9 00:34:52 10° W 00:38:16 31° NNW 00:39:15 27° NNE visible
12 Feb 7.9 00:09:25 10° W 00:12:47 32° NNW 00:14:59 18° NE visible
12 Feb 9.8 01:49:01 10° NW 01:49:22 12° NW 01:49:22 12° NW visible
12 Feb 7.9 23:43:54 10° W 23:47:16 32° NNW 23:50:39 11° NE visible
13 Feb 9.1 01:23:31 10° NW 01:25:01 17° NNW 01:25:01 17° NNW visible
14 Feb 8.5 00:57:59 10° NW 01:00:37 21° N 01:00:37 21° N visible
15 Feb 8.3 00:32:24 10° NW 00:35:21 21° N 00:36:09 20° NNE visible
16 Feb 8.4 00:06:47 10° NW 00:09:42 21° N 00:11:39 15° NE visible
16 Feb 9.6 01:45:25 10° NW 01:46:01 14° NW 01:46:01 14° NW visible
16 Feb 8.4 23:41:07 10° NW 23:44:00 21° N 23:46:59 10° NE visible
